一网星座-0518星 (ONEWEB-0518 )

导读

ONEWEB-0518是英国OneWeb公司的低轨宽带互联网卫星,于2022年10月22日发射入轨,归属OneWeb全球低轨卫星星座系统。该星座计划部署数百颗近地轨道卫星,旨在构建全球覆盖的高速低延时卫星通信网络,可为偏远地区、海洋空域提供宽带接入服务,支撑全球泛在互联网连接,推动天地一体化通信网络建设,ONEWEB-0518是该星座实现全球服务部署的重要组成单元。

基本信息
目录编号:
54136
目录名称:
ONEWEB-0518
国际标识:
2022-138Z
轨道中心:
EARTH
卫星名称:
一网星座-0518星
卫星全名:
一网星座-0518星 (ONEWEB-0518 )
卫星状态:
在轨 (已飞行1424 天)
发射日期:
2022-10-22 UTC
国别 :
英国 (GB)
星等 :
--
该卫星已列入 空间交会检测服务 Space Conjunction Data Service (SCDS) ,当前飞行风险评估等级: 无高风险
轨道信息
数据来源 国际轨道数据 AOE轨道数据
星历时间 2026-09-15T20:27:43+0800
11小时前
查看轨道信息
2026-09-15T23:00:00+0800
8小时前
查看轨道信息
半长轴 7563.913km 7563.883km
偏心率 0.0001748 0.0002071
轨道倾角 87.911° 87.914°
近地点辐角 89.556° 54.299°
升交点赤经 286.977° 286.953°
平近点角 270.577° 88.016°
近地点 1184.453km 1184.179km
远地点 1187.099km 1187.313km
周期 109.114分钟 109.113分钟
每日圈数 13.197237 13.197315
详细信息
平衡模式:
三轴稳定
覆盖范围:
全球
运营商:
一网卫星公司
运营商所在国:
英国
制造商(研发单位):
一网卫星公司
制造商所在国:
英国
使用方式:
暂无
卫星简介
OneWeb卫星网络由648颗重约125公斤的微型卫星组成,运行在1200公里的轨道上。 每颗卫星都能够提供至少每秒8千兆位的吞吐量,以使用其高吞吐量的Ku频段有效载荷为家庭和移动平台提供互联网接入。该卫星仍在工作。
2D轨道图
3D轨道图
轨道高度分析图
轨道倾角分析图
轨道综合分析图
查看轨道综合分析图
与全量物体交会距离演化趋势 订阅飞行安全评估服务
与全量物体交会风险概率演化趋势 订阅飞行安全评估服务